Date String (YYYY-MM-DD hh:mm:ss) UTC,Instrument flags,absolute air pressure of the measurement (hPa),sample flow rate (lpm),inlet stack bypass flow (lpm),air temperature of the measurement (°C),ambient temperature measured by the external sensor (°C),aerosol sample conditioner tube jacket temperature (°C),OPC LED temperature (°C),internal box temperature (°C),relative humidity of the measurement (%),span deviation,mass concentration of particles derived from Lorenz-Mie calculation of OPC scattering (μg/m³),mass concentration of particles derived from Lorenz-Mie calculation of OPC scattering (μg/m³),mass concentration of particles derived from Lorenz-Mie calculation of OPC scattering (μg/m³)
DateTimeUTC,F1_M11,P_M11,Q1_M11,Q2_M11,T1_M11,T2_M11,T3_M11,T4_M11,T5_M11,U1_M11,ZSPAN_M11,X2_M11,X0_M11,X1_M11
2024-05-07 21:00:00,SystemResetWarning,0816.9,4.99,000.00,023.1,022.4,000.0,031.4,024.8,015.8,0000.0,0001.67,0006.23,0000.93
2024-05-07 21:01:00,SystemResetWarning,0816.9,4.99,000.00,023.1,022.4,000.0,031.4,024.8,015.9,0000.0,0001.64,0006.61,0000.93
2024-05-07 21:02:00,SystemResetWarning,0816.9,5.02,000.00,023.1,022.4,000.0,031.4,024.9,016.2,0000.0,0001.64,0005.77,0000.93
2024-05-07 21:03:00,SystemResetWarning,0817.0,5.01,000.00,023.1,022.4,000.0,031.4,024.9,016.3,0000.0,0001.63,0005.65,0000.93
2024-05-07 21:04:00,SystemResetWarning,0817.1,4.99,000.00,023.1,022.4,000.0,031.4,024.9,016.0,0000.0,0001.66,0005.68,0000.93
2024-05-07 21:05:00,SystemResetWarning,0817.1,4.99,000.00,023.1,022.4,000.0,031.4,024.9,016.3,0000.0,0001.66,0004.45,0000.93
2024-05-07 21:06:00,SystemResetWarning,0817.1,5.00,000.00,023.1,022.4,000.0,031.4,024.9,016.0,0000.0,0001.63,0004.31,0000.91
2024-05-07 21:07:00,SystemResetWarning,0817.1,5.01,000.00,023.1,022.4,000.0,031.4,024.9,015.7,0000.0,0001.59,0004.16,0000.90
2024-05-07 21:08:00,SystemResetWarning,0817.1,5.00,000.00,023.1,022.4,000.0,031.4,024.9,016.0,0000.0,0001.63,0004.25,0000.91
2024-05-07 21:09:00,SystemResetWarning,0817.1,5.00,000.00,023.1,022.4,000.0,031.4,024.9,016.3,0000.0,0001.66,0004.30,0000.92
2024-05-07 21:10:00,SystemResetWarning,0817.2,5.00,000.00,023.1,022.4,000.0,031.4,024.9,016.7,0000.0,0001.64,0004.25,0000.93
2024-05-07 21:11:00,SystemResetWarning,0817.2,5.00,000.00,023.1,022.5,000.0,031.4,024.9,016.0,0000.0,0001.63,0004.07,0000.94
2024-05-07 21:12:00,SystemResetWarning,0817.3,4.99,000.00,023.1,022.5,000.0,031.4,024.9,016.1,0000.0,0001.67,0003.55,0000.95
2024-05-07 21:13:00,SystemResetWarning,0817.4,4.99,000.00,023.2,022.5,000.0,031.4,024.9,015.7,0000.0,0001.67,0003.32,0000.96
2024-05-07 21:14:00,SystemResetWarning,0817.4,4.99,000.00,023.2,022.5,000.0,031.4,024.9,015.4,0000.0,0001.68,0003.49,0000.97
2024-05-07 21:15:00,SystemResetWarning,0817.3,5.01,000.00,023.2,022.5,000.0,031.4,024.9,015.3,0000.0,0001.64,0003.89,0000.96
2024-05-07 21:16:00,SystemResetWarning,0817.4,5.01,000.00,023.2,022.5,000.0,031.4,024.9,015.3,0000.0,0001.67,0005.00,0000.98
2024-05-07 21:17:00,SystemResetWarning,0817.4,5.00,000.00,023.2,022.5,000.0,031.4,024.9,015.4,0000.0,0001.69,0005.02,0001.00
2024-05-07 21:18:00,SystemResetWarning,0817.5,4.99,000.00,023.2,022.5,000.0,031.4,024.9,015.3,0000.0,0001.74,0005.15,0001.01
2024-05-07 21:19:00,SystemResetWarning,0817.6,5.00,000.00,023.2,022.5,000.0,031.4,024.9,015.2,0000.0,0001.75,0005.27,0001.02
2024-05-07 21:20:00,SystemResetWarning,0817.6,5.01,000.00,023.2,022.5,000.0,031.4,024.9,015.6,0000.0,0001.77,0005.37,0001.03
2024-05-07 21:21:00,SystemResetWarning,0817.6,5.01,000.00,023.2,022.5,000.0,031.4,024.9,015.8,0000.0,0001.80,0006.78,0001.03
2024-05-07 21:22:00,SystemResetWarning,0817.5,5.00,000.00,023.2,022.5,000.0,031.4,024.9,016.0,0000.0,0001.85,0007.35,0001.04
2024-05-07 21:23:00,SystemResetWarning,0817.5,4.99,000.00,023.2,022.5,000.0,031.4,024.9,017.0,0000.0,0001.86,0007.67,0001.04
2024-05-07 21:24:00,SystemResetWarning,0817.5,5.00,000.00,023.2,022.5,000.0,031.4,024.9,017.6,0000.0,0001.85,0008.85,0001.03
2024-05-07 21:25:00,SystemResetWarning,0817.4,4.99,000.00,023.2,022.5,000.0,031.4,024.9,017.7,0000.0,0001.83,0008.90,0001.03
2024-05-07 21:26:00,SystemResetWarning,0817.5,4.99,000.00,023.2,022.4,000.0,031.4,024.9,018.0,0000.0,0001.94,0008.89,0001.04
2024-05-07 21:27:00,SystemResetWarning,0817.5,5.00,000.00,023.2,022.4,000.0,031.4,024.9,017.9,0000.0,0001.99,0008.36,0001.05
2024-05-07 21:28:00,SystemResetWarning,0817.6,5.00,000.00,023.2,022.4,000.0,031.4,024.9,018.5,0000.0,0001.98,0008.29,0001.04
2024-05-07 21:29:00,SystemResetWarning,0817.5,5.01,000.00,023.2,022.5,000.0,031.4,024.9,019.0,0000.0,0001.96,0008.22,0001.05
2024-05-07 21:30:00,SystemResetWarning,0817.5,5.01,000.00,023.2,022.5,000.0,031.4,024.9,018.2,0000.0,0001.95,0008.16,0001.04
2024-05-07 21:31:00,SystemResetWarning,0817.6,5.00,000.00,023.2,022.5,000.0,031.4,025.0,018.1,0000.0,0001.87,0008.05,0001.02
2024-05-07 21:32:00,SystemResetWarning,0817.6,5.00,000.00,023.2,022.5,000.0,031.4,025.0,018.1,0000.0,0001.80,0007.36,0001.00
2024-05-07 21:33:00,SystemResetWarning,0817.6,5.00,000.00,023.2,022.5,000.0,031.4,025.0,018.4,0000.0,0001.75,0006.59,0001.00
2024-05-07 21:34:00,SystemResetWarning,0817.7,4.99,000.00,023.2,022.6,000.0,031.4,025.0,018.1,0000.0,0001.78,0006.25,0001.00
2024-05-07 21:35:00,SystemResetWarning,0817.8,5.00,000.00,023.3,022.6,000.0,031.4,025.0,018.2,0000.0,0001.76,0003.87,0001.01
2024-05-07 21:36:00,SystemResetWarning,0817.8,5.00,000.00,023.3,022.6,000.0,031.4,025.0,019.1,0000.0,0001.76,0004.84,0001.01
2024-05-07 21:37:00,SystemResetWarning,0818.0,5.01,000.00,023.3,022.6,000.0,031.4,025.0,019.4,0000.0,0001.68,0006.31,0001.01
2024-05-07 21:38:00,SystemResetWarning,0818.0,5.00,000.00,023.3,022.6,000.0,031.5,025.0,019.0,0000.0,0001.60,0005.99,0001.00
2024-05-07 21:39:00,SystemResetWarning,0818.0,5.00,000.00,023.3,022.6,000.0,031.5,025.0,018.7,0000.0,0001.61,0006.02,0001.00
2024-05-07 21:40:00,SystemResetWarning,0818.0,5.00,000.00,023.3,022.6,000.0,031.5,025.0,018.8,0000.0,0001.63,0006.12,0001.00
2024-05-07 21:41:00,SystemResetWarning,0818.0,5.00,000.00,023.3,022.6,000.0,031.5,025.0,018.6,0000.0,0001.62,0006.13,0001.01
2024-05-07 21:42:00,SystemResetWarning,0818.0,5.00,000.00,023.3,022.5,000.0,031.5,025.0,017.7,0000.0,0001.69,0006.38,0001.03
2024-05-07 21:43:00,SystemResetWarning,0817.9,5.01,000.00,023.3,022.5,000.0,031.5,024.9,017.6,0000.0,0001.75,0006.51,0001.03
2024-05-07 21:44:00,SystemResetWarning,0818.0,5.00,000.00,023.3,022.5,000.0,031.5,025.0,017.3,0000.0,0001.78,0006.52,0001.00
2024-05-07 21:45:00,SystemResetWarning,0818.1,5.00,000.00,023.2,022.5,000.0,031.5,024.9,017.8,0000.0,0001.73,0006.31,0000.99
2024-05-07 21:46:00,SystemResetWarning,0818.0,5.00,000.00,023.2,022.5,000.0,031.5,024.9,017.8,0000.0,0001.75,0006.38,0000.97
2024-05-07 21:47:00,SystemResetWarning,0818.1,4.99,000.00,023.2,022.5,000.0,031.5,024.9,017.6,0000.0,0001.76,0005.59,0000.96
2024-05-07 21:48:00,SystemResetWarning,0818.0,4.99,000.00,023.2,022.4,000.0,031.5,025.0,017.2,0000.0,0001.73,0003.28,0000.94
2024-05-07 21:49:00,SystemResetWarning,0818.1,4.99,000.00,023.2,022.4,000.0,031.5,025.0,017.2,0000.0,0001.68,0003.16,0000.91
2024-05-07 21:50:00,SystemResetWarning,0818.0,5.00,000.00,023.2,022.4,000.0,031.5,025.0,017.3,0000.0,0001.62,0003.06,0000.88
2024-05-07 21:51:00,SystemResetWarning,0817.9,5.00,000.00,023.2,022.4,000.0,031.5,025.0,017.5,0000.0,0001.61,0003.07,0000.86
2024-05-07 21:52:00,SystemResetWarning,0817.9,5.00,000.00,023.2,022.4,000.0,031.4,024.9,017.3,0000.0,0001.60,0003.08,0000.85
2024-05-07 21:53:00,SystemResetWarning,0817.9,5.00,000.00,023.2,022.5,000.0,031.4,024.9,017.7,0000.0,0001.56,0002.95,0000.82
2024-05-07 21:54:00,SystemResetWarning,0817.7,5.00,000.00,023.2,022.5,000.0,031.4,024.9,017.4,0000.0,0001.53,0002.99,0000.82
2024-05-07 21:55:00,SystemResetWarning,0817.7,5.00,000.00,023.2,022.5,000.0,031.4,024.9,016.5,0000.0,0001.51,0002.99,0000.83
2024-05-07 21:56:00,SystemResetWarning,0817.5,5.01,000.00,023.2,022.5,000.0,031.4,024.9,015.5,0000.0,0001.50,0003.02,0000.83
2024-05-07 21:57:00,SystemResetWarning,0817.4,5.00,000.00,023.2,022.5,000.0,031.4,024.9,015.4,0000.0,0001.48,0003.03,0000.82
2024-05-07 21:58:00,SystemResetWarning,0817.3,4.98,000.00,023.2,022.5,000.0,031.4,024.9,015.6,0000.0,0001.48,0003.32,0000.81
2024-05-07 21:59:00,SystemResetWarning,0817.4,5.00,000.00,023.2,022.4,000.0,031.4,024.9,015.8,0000.0,0001.52,0003.47,0000.81
